[Date Prev][Date Next][Thread Prev][Thread Next] - [Date Index][Thread Index][Author Index]
2 Line ISS Keps 3-9
- Subject: [sarex] 2 Line ISS Keps 3-9
- From: "Dave Larsen PhD" <doc@xxxxxxxxxxx>
- Date: Sat, 9 Mar 2002 03:32:31 -0800
ISS
1 25544U 98067A 02068.14583333 .00071908 00000-0 85781-3 0 1647
2 25544 51.6384 195.5215 0004746 162.7608 192.6874 15.60384614188426
----
Via the sarex mailing list at AMSAT.ORG courtesy of AMSAT-NA.
To unsubscribe, send "unsubscribe sarex" to Majordomo@amsat.org
AMSAT Home